Powrót do katalogu

STARLINK-38261

AktywnyŁącznośćSSO
NORAD 100309·PAYLOAD·🇺🇸 United States

Wystrzelony Aug 12, 2026 z Vandenberg Space Force Base

Loading…

Następne Przeloty (najbliższe 24 godziny)

TLE

ŚwieżeSource: Space-Track

Epoka: Sep 14, 2026, 14:19 UTC

1 A0309U 26184J   26257.59663931  .00014463  00000-0  44985-3 0  9998
2 A0309  97.2839 122.7677 0001230  77.8288 282.3092 15.33416465  6459

Śledź STARLINK-38261 w czasie rzeczywistym z AllMySat

Download on the App Store